TimeCET,TemperatureF,Dew PointF,Humidity,Sea Level PressureIn,VisibilityMPH,Wind Direction,Wind SpeedMPH,Gust SpeedMPH,PrecipitationIn,Events,Conditions,WindDirDegrees,DateUTC
12:00 AM,39,34,76,29.68,7,ESE,6.7,,,,Partly Cloudy,120,2014-02-03 23:00:00
12:25 AM,39.2,33.8,81,29.65,6.2,ESE,9.2,-,N/A,,Unknown,120,2014-02-03 23:25:00
12:55 AM,37.4,33.8,87,29.65,6.2,SE,8.1,-,N/A,,Unknown,130,2014-02-03 23:55:00
1:00 AM,37,33,82,29.67,6,SE,6.7,,,,Mist,140,2014-02-04 00:00:00
1:25 AM,37.4,33.8,87,29.65,5.6,SE,8.1,-,N/A,,Mist,140,2014-02-04 00:25:00
1:55 AM,37.4,33.8,87,29.65,5.6,SE,8.1,-,N/A,,Partly Cloudy,140,2014-02-04 00:55:00
2:00 AM,37,33,80,29.67,6,SE,6.7,,,,Mist,140,2014-02-04 01:00:00
2:25 AM,37.4,33.8,87,29.65,5.6,SE,8.1,-,N/A,,Partly Cloudy,140,2014-02-04 01:25:00
2:55 AM,37.4,33.8,87,29.65,6.2,SE,8.1,-,N/A,,Partly Cloudy,140,2014-02-04 01:55:00
3:00 AM,37,33,79,29.66,6,SSE,6.7,,,,Scattered Clouds,150,2014-02-04 02:00:00
3:25 AM,37.4,32.0,81,29.65,6.2,SSE,6.9,-,N/A,,Unknown,150,2014-02-04 02:25:00
3:55 AM,37.4,32.0,81,29.65,6.2,SE,9.2,-,N/A,,Unknown,140,2014-02-04 02:55:00
4:00 AM,37,33,79,29.66,7,SSE,8.9,,,,,150,2014-02-04 03:00:00
4:25 AM,37.4,32.0,81,29.65,6.2,SSE,10.4,-,N/A,,Unknown,150,2014-02-04 03:25:00
4:55 AM,37.4,32.0,81,29.65,6.2,SSE,9.2,-,N/A,,Unknown,160,2014-02-04 03:55:00
5:00 AM,37,32,77,29.67,9,SSE,8.9,,,,Scattered Clouds,160,2014-02-04 04:00:00
5:25 AM,37.4,33.8,87,29.65,6.2,SSE,9.2,-,N/A,,Scattered Clouds,150,2014-02-04 04:25:00
5:55 AM,37.4,32.0,81,29.65,6.2,SSE,8.1,-,N/A,,Scattered Clouds,150,2014-02-04 04:55:00
6:00 AM,38,33,74,29.67,10,SSE,8.9,,,,Scattered Clouds,150,2014-02-04 05:00:00
6:25 AM,39.2,33.8,81,29.65,6.2,SSE,10.4,-,N/A,,Overcast,150,2014-02-04 05:25:00
6:55 AM,39.2,33.8,81,29.65,6.2,SSE,12.7,-,N/A,,Mostly Cloudy,160,2014-02-04 05:55:00
7:00 AM,40,34,72,29.67,14,SSE,11.2,,,,Partly Cloudy,160,2014-02-04 06:00:00
7:25 AM,41.0,33.8,76,29.65,6.2,South,11.5,-,N/A,,Overcast,170,2014-02-04 06:25:00
7:45 AM,41.0,35.6,81,29.65,6.2,South,10.4,-,N/A,,Overcast,170,2014-02-04 06:45:00
7:49 AM,41.0,35.6,81,29.65,6.2,South,10.4,-,N/A,,Overcast,170,2014-02-04 06:49:00
7:55 AM,42.8,35.6,76,29.65,6.2,South,10.4,-,N/A,,Overcast,180,2014-02-04 06:55:00
7:56 AM,42.8,35.6,76,29.65,6.2,South,10.4,-,N/A,,Overcast,180,2014-02-04 06:56:00
8:00 AM,43,36,67,29.68,28,South,11.2,,,,Overcast,180,2014-02-04 07:00:00
8:03 AM,42.8,35.6,76,29.65,6.2,South,11.5,-,N/A,,Overcast,180,2014-02-04 07:03:00
8:25 AM,42.8,35.6,76,29.68,6.2,South,11.5,-,N/A,,Overcast,180,2014-02-04 07:25:00
8:29 AM,42.8,35.6,76,29.68,6.2,South,11.5,-,N/A,,Overcast,180,2014-02-04 07:29:00
8:34 AM,42.8,35.6,76,29.68,6.2,South,10.4,-,N/A,,Overcast,180,2014-02-04 07:34:00
8:41 AM,44.6,35.6,71,29.68,6.2,South,11.5,-,N/A,,Overcast,180,2014-02-04 07:41:00
8:55 AM,44.6,35.6,71,29.68,6.2,South,10.4,-,N/A,,Overcast,180,2014-02-04 07:55:00
9:00 AM,44,36,66,29.71,28,South,11.2,,,,Overcast,180,2014-02-04 08:00:00
9:15 AM,44.6,35.6,71,29.68,6.2,South,11.5,-,N/A,,Overcast,190,2014-02-04 08:15:00
9:19 AM,44.6,35.6,71,29.71,6.2,South,12.7,-,N/A,,Overcast,190,2014-02-04 08:19:00
9:25 AM,44.6,35.6,71,29.71,6.2,South,11.5,-,N/A,,Overcast,190,2014-02-04 08:25:00
9:46 AM,44.6,37.4,76,29.71,6.2,South,11.5,-,N/A,,Mostly Cloudy,190,2014-02-04 08:46:00
9:48 AM,44.6,37.4,76,29.71,6.2,South,11.5,-,N/A,,Mostly Cloudy,190,2014-02-04 08:48:00
9:55 AM,44.6,37.4,76,29.71,6.2,South,11.5,-,N/A,,Overcast,190,2014-02-04 08:55:00
10:00 AM,45,37,66,29.73,28,SSW,11.2,,,,Overcast,200,2014-02-04 09:00:00
10:13 AM,44.6,37.4,76,29.71,6.2,SSW,12.7,-,N/A,,Overcast,200,2014-02-04 09:13:00
10:24 AM,44.6,37.4,76,29.71,6.2,SSW,13.8,-,N/A,,Overcast,200,2014-02-04 09:24:00
10:25 AM,44.6,37.4,76,29.71,6.2,SSW,13.8,-,N/A,,Overcast,200,2014-02-04 09:25:00
10:33 AM,44.6,37.4,76,29.74,6.2,SSW,10.4,-,N/A,,Mostly Cloudy,200,2014-02-04 09:33:00
10:45 AM,46.4,37.4,71,29.74,6.2,SSW,12.7,-,N/A,,Partly Cloudy,200,2014-02-04 09:45:00
10:55 AM,46.4,37.4,71,29.74,6.2,SSW,11.5,-,N/A,,Scattered Clouds,200,2014-02-04 09:55:00
10:58 AM,46.4,37.4,71,29.74,6.2,SSW,11.5,-,N/A,,Scattered Clouds,200,2014-02-04 09:58:00
11:00 AM,46,38,63,29.76,25,SSW,13.4,,,,Partly Cloudy,200,2014-02-04 10:00:00
11:09 AM,46.4,37.4,71,29.74,6.2,SSW,15.0,-,N/A,,Mostly Cloudy,210,2014-02-04 10:09:00
11:25 AM,46.4,37.4,71,29.74,6.2,SSW,9.2,-,N/A,,Mostly Cloudy,200,2014-02-04 10:25:00
11:29 AM,46.4,37.4,71,29.74,6.2,SSW,10.4,-,N/A,,Mostly Cloudy,200,2014-02-04 10:29:00
11:34 AM,46.4,37.4,71,29.74,6.2,SSW,11.5,-,N/A,,Mostly Cloudy,200,2014-02-04 10:34:00
11:47 AM,46.4,37.4,71,29.74,6.2,SSW,15.0,-,N/A,,Overcast,200,2014-02-04 10:47:00
11:55 AM,46.4,37.4,71,29.77,6.2,SSW,13.8,-,N/A,,Overcast,210,2014-02-04 10:55:00
12:00 PM,47,38,60,29.78,25,SSW,13.4,,,,Overcast,210,2014-02-04 11:00:00
12:09 PM,46.4,37.4,71,29.77,6.2,SSW,10.4,-,N/A,,Mostly Cloudy,200,2014-02-04 11:09:00
12:16 PM,46.4,37.4,71,29.77,6.2,SSW,10.4,-,N/A,,Mostly Cloudy,200,2014-02-04 11:16:00
12:25 PM,46.4,37.4,71,29.77,6.2,South,15.0,-,N/A,,Mostly Cloudy,190,2014-02-04 11:25:00
12:55 PM,48.2,37.4,66,29.74,6.2,SSW,13.8,-,N/A,,Overcast,200,2014-02-04 11:55:00
1:00 PM,49,37,52,29.77,18,SSW,15.7,,,,Partly Cloudy,200,2014-02-04 12:00:00
1:25 PM,50.0,37.4,62,29.74,6.2,SSW,16.1,-,N/A,,Overcast,200,2014-02-04 12:25:00
1:55 PM,50.0,37.4,62,29.74,6.2,SSW,12.7,-,N/A,,Scattered Clouds,200,2014-02-04 12:55:00
2:00 PM,50,37,51,29.77,19,South,13.4,,,,Scattered Clouds,190,2014-02-04 13:00:00
2:25 PM,48.2,35.6,62,29.74,6.2,South,13.8,-,N/A,,Mostly Cloudy,190,2014-02-04 13:25:00
2:55 PM,50.0,37.4,62,29.74,6.2,South,12.7,-,N/A,,Overcast,190,2014-02-04 13:55:00
3:00 PM,50,36,48,29.75,17,South,13.4,,,,Mostly Cloudy,180,2014-02-04 14:00:00
3:25 PM,50.0,35.6,58,29.71,6.2,South,16.1,-,N/A,,Partly Cloudy,180,2014-02-04 14:25:00
3:32 PM,50.0,35.6,58,29.71,6.2,South,16.1,-,N/A,,Partly Cloudy,190,2014-02-04 14:32:00
3:55 PM,48.2,35.6,62,29.71,6.2,South,15.0,-,N/A,,Partly Cloudy,180,2014-02-04 14:55:00
4:00 PM,49,36,49,29.74,19,South,13.4,,,,Scattered Clouds,180,2014-02-04 15:00:00
4:25 PM,48.2,35.6,62,29.71,6.2,South,12.7,-,N/A,,Overcast,180,2014-02-04 15:25:00
4:55 PM,48.2,33.8,58,29.71,6.2,South,12.7,-,N/A,,Mostly Cloudy,180,2014-02-04 15:55:00
5:00 PM,48,35,50,29.73,22,South,11.2,,,,Mostly Cloudy,180,2014-02-04 16:00:00
5:25 PM,48.2,35.6,62,29.71,6.2,South,10.4,-,N/A,,Overcast,170,2014-02-04 16:25:00
5:55 PM,46.4,33.8,62,29.71,6.2,SSE,11.5,-,N/A,,Overcast,160,2014-02-04 16:55:00
6:00 PM,47,35,51,29.72,25,SSE,11.2,,,,Overcast,160,2014-02-04 17:00:00
6:25 PM,46.4,33.8,62,29.71,6.2,SSE,9.2,-,N/A,,Overcast,150,2014-02-04 17:25:00
6:55 PM,46.4,33.8,62,29.68,6.2,SSE,9.2,-,N/A,,Overcast,150,2014-02-04 17:55:00
7:00 PM,46,35,53,29.70,22,SSE,8.9,,,,Partly Cloudy,150,2014-02-04 18:00:00
7:25 PM,44.6,33.8,66,29.68,6.2,SE,9.2,-,N/A,,Mostly Cloudy,140,2014-02-04 18:25:00
7:55 PM,44.6,33.8,66,29.68,6.2,SSE,9.2,-,N/A,,Partly Cloudy,150,2014-02-04 18:55:00
8:00 PM,43,34,61,29.68,22,SE,8.9,,,,Scattered Clouds,140,2014-02-04 19:00:00
8:25 PM,42.8,33.8,70,29.65,6.2,SE,9.2,-,N/A,,Unknown,140,2014-02-04 19:25:00
8:55 PM,42.8,33.8,70,29.65,6.2,SE,9.2,-,N/A,,Unknown,140,2014-02-04 19:55:00
9:00 PM,43,34,61,29.67,22,SE,11.2,,,,,140,2014-02-04 20:00:00
9:25 PM,42.8,33.8,70,29.65,6.2,SE,9.2,-,N/A,,Unknown,140,2014-02-04 20:25:00
9:55 PM,41.0,33.8,76,29.65,6.2,SE,9.2,-,N/A,,Unknown,130,2014-02-04 20:55:00
10:00 PM,41,33,66,29.64,19,SE,11.2,,,,Scattered Clouds,130,2014-02-04 21:00:00
10:25 PM,41.0,33.8,76,29.62,6.2,SE,10.4,-,N/A,,Unknown,140,2014-02-04 21:25:00
10:55 PM,41.0,33.8,76,29.62,6.2,SE,10.4,-,N/A,,Unknown,140,2014-02-04 21:55:00
11:00 PM,41,34,66,29.63,22,SE,11.2,,,,,140,2014-02-04 22:00:00
11:25 PM,41.0,33.8,76,29.59,6.2,SE,10.4,-,N/A,,Unknown,130,2014-02-04 22:25:00
11:55 PM,41.0,33.8,76,29.59,6.2,SE,9.2,-,N/A,,Unknown,130,2014-02-04 22:55:00